EW6756 Weather Reports


Display with metric or nautical units.
time (UTC)temp
F
wind
direction
speed
MPH
gust
MPH
rain 1hr
in
rain 24hr
in
rain mn
in
humidity
%
barometer
mb
20260903183218 64 229 2.0 8.0 0.00 0.27 0.27 95 1011.8
20260903182507 65 222 1.0 8.0 0.00 0.27 0.27 94 1011.8
20260903182003 65 201 1.0 7.0 0.00 0.27 0.27 94 1011.9
20260903181505 65 199 1.0 7.0 0.00 0.27 0.27 94 1011.9
20260903181003 65 221 1.0 4.0 0.00 0.27 0.27 94 1012.0
20260903180719 65 222 1.0 7.0 0.00 0.27 0.27 94 1011.9
20260903180004 65 194 2.0 8.0 0.00 0.27 0.27 93 1011.6
20260903175717 65 192 2.0 8.0 0.00 0.27 0.27 93 1011.6
20260903175218 65 199 2.0 8.0 0.00 0.27 0.27 93 1011.8
20260903174505 65 202 1.0 7.0 0.00 0.27 0.27 93 1011.9
20260903073215 61 199 1.0 10.0 0.04 0.09 0.07 98 1011.3
20260903072504 61 205 1.0 7.0 0.05 0.09 0.07 98 1011.4
20260903072003 61 225 1.0 5.0 0.05 0.09 0.07 97 1011.4
20260903071503 60 200 2.0 8.0 0.04 0.09 0.06 97 1011.3
20260903071003 60 183 2.0 10.0 0.04 0.09 0.06 97 1011.5
20260903070503 60 178 2.0 10.0 0.04 0.09 0.06 97 1011.5
20260903070217 60 191 2.0 10.0 0.04 0.09 0.06 97 1011.6
20260903065503 61 229 2.0 7.0 0.04 0.09 0.06 96 1011.6
20260903065003 61 191 2.0 8.0 0.04 0.09 0.06 96 1011.7
20260903064716 61 175 2.0 8.0 0.04 0.08 0.06 96 1011.7
20260903064005 61 193 1.0 7.0 0.02 0.06 0.04 96 1011.7